Location: Spring Creek
(38.2870°N, 100.2160°W)
Time: 08:19:14
(UTC+00:00)

NOSS 3-3 (A) - Pass Details

Date: 08 May 2021
Orbit: 810 x 1402 km, 63.4° (Epoch: 06 June)

Event Time Altitude Azimuth Distance (km) Brightness Sun altitude
Rises 03:46:08 0° 208° (SSW) 3,336 6.6 -21.6°
Reaches altitude 10° 03:48:28 10° 208° (SSW) 2,435 5.9 -21.9°
Maximum altitude 03:54:02 82° 121° (ESE) 900 3.7 -22.6°
Drops below altitude 10° 04:00:20 10° 35° (NE) 2,731 6.5 -23.5°
Sets 04:03:05 0° 34° (NE) 3,772 7.3 -23.8°
